Change the Weather History Date:

Sunday, December 9, 2012

  Actual Average Record
Temperature  
Mean Temperature 12 °F 26 °F  
Max Temperature 22 °F 40 °F 70 °F (1939)
Min Temperature 2 °F 13 °F -32 °F (1919)
Degree Days  
Heating Degree Days 53 39  
Month to date heating degree days 242 338  
Since 1 July heating degree days 1545 1903  
Cooling Degree Days 0 0  
Month to date cooling degree days 0 0  
Year to date cooling degree days 1208 724  
Moisture  
Dew Point 2 °F    
Average Humidity 60    
Maximum Humidity 79    
Minimum Humidity 41    
Precipitation  
Precipitation 0.00 in 0.02 in 0.97 in (1918)
Month to date precipitation T 0.15  
Year to date precipitation 6.80 15.43  
Snow  
Snow 0.00 in 0.20 in 7.90 in (1985)
Month to date snowfall T 2.0  
Since 1 July snowfall 10.5 10.9  
Snow Depth 0.00 in    
Sea Level Pressure  
Sea Level Pressure 30.27 in    
Wind  
Wind Speed 13 mph (NNW)    
Max Wind Speed 29 mph    
Max Gust Speed 36 mph    
Visibility 10 miles    
Events      
T = Trace of Precipitation, MM = Missing Value Source: NWS Daily Summary

Daily Weather History Graph

Daily Weather History Graph

Search for Another Location

Airport or City:

Trip Planner

Search our weather history database for the weather conditions in past years. The results will help you decide how hot, cold, wet, or windy it might be!

Date:

Astronomy

Dec. 09, 2012 Rise Set
Actual Time 7:10 AM MST 4:23 PM MST
Civil Twilight 6:39 AM MST 4:54 PM MST
Nautical Twilight 6:04 AM MST 5:29 PM MST
Astronomical Twilight 5:30 AM MST 6:03 PM MST
Moon 2:43 AM MST (12/9) 1:34 PM MST (12/9)
Length of Visible Light 10h 15m
Length of Day
9h 12m
Waning Crescent, 18% of the Moon is Illuminated
Dec 9
Waning Crescent
Dec 13
New
Dec 19
First Quarter
Dec 28
Full
Jan 4
Last Quarter

Hourly Weather History & Observations

Time (MST) Temp. Windchill Dew Point Humidity Pressure Visibility Wind Dir Wind Speed Gust Speed Precip Events Conditions
12:53 AM 16.0 °F -0.9 °F 7.0 °F 68% 30.04 in 10.0 mi NW 19.6 mph - N/A   Clear
1:41 AM 15.8 °F -3.4 °F 6.8 °F 68% 29.98 in 10.0 mi NW 26.5 mph 33.4 mph N/A   Mostly Cloudy
1:53 AM 16.0 °F -1.7 °F 6.1 °F 65% 30.07 in 10.0 mi NW 21.9 mph 34.5 mph N/A   Overcast
2:53 AM 14.0 °F -3.9 °F 5.0 °F 67% 30.12 in 10.0 mi NW 20.7 mph 28.8 mph N/A   Mostly Cloudy
3:53 AM 14.0 °F -1.4 °F 3.9 °F 64% 30.17 in 10.0 mi NW 15.0 mph 26.5 mph N/A   Scattered Clouds
4:00 AM 12.2 °F -3.1 °F 3.2 °F 67% 30.06 in 10.0 mi NW 13.8 mph - N/A   Mostly Cloudy
4:53 AM 14.0 °F 0.5 °F 5.0 °F 67% 30.09 in 10.0 mi NW 11.5 mph - N/A   Overcast
5:04 AM 14.0 °F 0.5 °F 6.8 °F 73% 30.10 in 10.0 mi NW 11.5 mph - N/A   Overcast
5:53 AM 12.0 °F -7.7 °F 3.0 °F 67% 30.25 in 10.0 mi NNW 24.2 mph 33.4 mph N/A   Mostly Cloudy
6:53 AM 10.9 °F -8.3 °F 3.0 °F 70% 30.29 in 10.0 mi NNW 21.9 mph 27.6 mph N/A   Clear
7:53 AM 10.9 °F -5.9 °F 3.0 °F 70% 30.33 in 10.0 mi NW 16.1 mph - N/A   Clear
8:53 AM 12.9 °F -7.3 °F 1.0 °F 59% 30.35 in 10.0 mi NNW 26.5 mph 33.4 mph N/A   Clear
9:53 AM 15.1 °F -2.9 °F 1.0 °F 54% 30.39 in 10.0 mi NNW 21.9 mph 28.8 mph N/A   Clear
10:53 AM 17.1 °F 1.0 °F 1.0 °F 50% 30.40 in 10.0 mi NNW 18.4 mph 26.5 mph N/A   Clear
11:53 AM 19.0 °F 5.6 °F 1.0 °F 46% 30.38 in 10.0 mi NNW 13.8 mph - N/A   Clear
12:53 PM 19.9 °F 5.7 °F 1.9 °F 46% 30.36 in 10.0 mi North 16.1 mph - N/A   Clear
1:53 PM 21.0 °F 6.6 °F 1.0 °F 42% 30.35 in 10.0 mi North 17.3 mph 21.9 mph N/A   Clear
2:53 PM 21.0 °F 8.1 °F 1.0 °F 42% 30.37 in 10.0 mi NW 13.8 mph - N/A   Clear
3:53 PM 19.0 °F 8.2 °F 1.9 °F 47% 30.37 in 10.0 mi NNW 9.2 mph - N/A   Clear
4:53 PM 15.1 °F 9.4 °F 1.9 °F 56% 30.38 in 10.0 mi NW 3.5 mph - N/A   Clear
5:53 PM 12.9 °F 6.9 °F 1.9 °F 62% 30.39 in 10.0 mi WNW 3.5 mph - N/A   Clear
6:53 PM 10.0 °F - 1.0 °F 67% 30.38 in 10.0 mi Calm Calm - N/A   Clear
7:53 PM 5.0 °F - -2.9 °F 70% 30.37 in 10.0 mi Calm Calm - N/A   Clear
8:53 PM 3.9 °F -5.3 °F -2.9 °F 73% 30.34 in 10.0 mi SE 4.6 mph - N/A   Clear
9:53 PM 3.0 °F -4.4 °F -4.0 °F 73% 30.30 in 10.0 mi East 3.5 mph - N/A   Clear
10:53 PM 3.0 °F -9.3 °F -2.9 °F 76% 30.25 in 10.0 mi East 6.9 mph - N/A   Clear
11:53 PM 3.0 °F -10.5 °F -2.9 °F 76% 30.21 in 10.0 mi ESE 8.1 mph - N/A   Clear